Location: Poughquag
(41.6090°N, 73.6820°W)
Time: 14:42:39
(UTC-04:00)

Explorer 11/Cluster Stage 4 - Pass Details

Date: 29 May 2020
Orbit: 467 x 1259 km, 28.8° (Epoch: 05 July)

Event Time Altitude Azimuth Distance (km) Brightness Sun altitude
Rises 07:17:48 0° 222° (SW) 3,691 9.6 18.9°
Reaches altitude 10° 07:20:58 10° 208° (SSW) 2,872 9.2 19.4°
Maximum altitude 07:26:17 22° 160° (SSE) 2,269 9.2 20.4°
Drops below altitude 10° 07:32:05 10° 114° (ESE) 3,180 10.7 21.5°
Sets 07:35:48 0° 100° (E) 4,190 11.5 22.2°
